Year,Month,Day,Hour,Minute,Value (Times are PST for temperature in C)
2013,04,24,00,00,6.80
2013,04,24,00,01,6.80
2013,04,24,00,02,6.80
2013,04,24,00,03,6.80
2013,04,24,00,04,6.80
2013,04,24,00,05,6.80
2013,04,24,00,06,6.80
2013,04,24,00,07,6.80
2013,04,24,00,08,6.70
2013,04,24,00,09,6.70
2013,04,24,00,10,6.70
2013,04,24,00,11,6.70
2013,04,24,00,12,6.60
2013,04,24,00,13,6.60
2013,04,24,00,14,6.60
2013,04,24,00,15,6.60
2013,04,24,00,16,6.60
2013,04,24,00,17,6.60
2013,04,24,00,18,6.60
2013,04,24,00,19,6.50
2013,04,24,00,20,6.50
2013,04,24,00,21,6.40
2013,04,24,00,22,6.40
2013,04,24,00,23,6.40
2013,04,24,00,24,6.40
2013,04,24,00,25,6.30
2013,04,24,00,26,6.30
2013,04,24,00,27,6.30
2013,04,24,00,28,6.30
2013,04,24,00,29,6.30
2013,04,24,00,30,6.20
2013,04,24,00,31,6.20
2013,04,24,00,32,6.20
2013,04,24,00,33,6.20
2013,04,24,00,34,6.20
2013,04,24,00,35,6.20
2013,04,24,00,36,6.10
2013,04,24,00,37,6.10
2013,04,24,00,38,6.10
2013,04,24,00,39,6.10
2013,04,24,00,40,6.10
2013,04,24,00,41,6.10
2013,04,24,00,42,6.10
2013,04,24,00,43,6.10
2013,04,24,00,44,6.00
2013,04,24,00,45,6.00
2013,04,24,00,46,6.00
2013,04,24,00,47,6.00
2013,04,24,00,48,6.00
2013,04,24,00,49,5.90
2013,04,24,00,50,5.90
2013,04,24,00,51,5.90
2013,04,24,00,52,5.90
2013,04,24,00,53,5.90
2013,04,24,00,54,5.90
2013,04,24,00,55,5.90
2013,04,24,00,56,5.90
2013,04,24,00,57,5.90
2013,04,24,00,58,5.90
2013,04,24,00,59,5.90
2013,04,24,01,00,5.90
2013,04,24,01,01,5.90
2013,04,24,01,02,5.90
2013,04,24,01,03,5.90
2013,04,24,01,04,5.90
2013,04,24,01,05,5.90
2013,04,24,01,06,5.80
2013,04,24,01,07,5.80
2013,04,24,01,08,5.80
2013,04,24,01,09,5.80
2013,04,24,01,10,5.80
2013,04,24,01,11,5.80
2013,04,24,01,12,5.80
2013,04,24,01,13,5.80
2013,04,24,01,14,5.80
2013,04,24,01,15,5.80
2013,04,24,01,16,5.80
2013,04,24,01,17,5.80
2013,04,24,01,18,5.80
2013,04,24,01,19,5.80
2013,04,24,01,20,5.80
2013,04,24,01,21,5.80
2013,04,24,01,22,5.80
2013,04,24,01,23,5.80
2013,04,24,01,24,5.80
2013,04,24,01,25,5.80
2013,04,24,01,26,5.80
2013,04,24,01,27,5.80
2013,04,24,01,28,5.80
2013,04,24,01,29,5.80
2013,04,24,01,30,5.80
2013,04,24,01,31,5.80
2013,04,24,01,32,5.80
2013,04,24,01,33,5.80
2013,04,24,01,34,5.80
2013,04,24,01,35,5.80
2013,04,24,01,36,5.80
2013,04,24,01,37,5.80
2013,04,24,01,38,5.80
2013,04,24,01,39,5.80
2013,04,24,01,40,5.80
2013,04,24,01,41,5.80
2013,04,24,01,42,5.80
2013,04,24,01,43,5.80
2013,04,24,01,44,5.80
2013,04,24,01,45,5.70
2013,04,24,01,46,5.70
2013,04,24,01,47,5.70
2013,04,24,01,48,5.70
2013,04,24,01,49,5.70
2013,04,24,01,50,5.60
2013,04,24,01,51,5.60
2013,04,24,01,52,5.60
2013,04,24,01,53,5.60
2013,04,24,01,54,5.60
2013,04,24,01,55,5.60
2013,04,24,01,56,5.50
2013,04,24,01,57,5.50
2013,04,24,01,58,5.50
2013,04,24,01,59,5.50
2013,04,24,02,00,5.50
2013,04,24,02,01,5.50
2013,04,24,02,02,5.50
2013,04,24,02,03,5.50
2013,04,24,02,04,5.40
2013,04,24,02,05,5.40
2013,04,24,02,06,5.40
2013,04,24,02,07,5.40
2013,04,24,02,08,5.40
2013,04,24,02,09,5.40
2013,04,24,02,10,5.40
2013,04,24,02,11,5.40
2013,04,24,02,12,5.30
2013,04,24,02,13,5.30
2013,04,24,02,14,5.30
2013,04,24,02,15,5.30
2013,04,24,02,16,5.30
2013,04,24,02,17,5.30
2013,04,24,02,18,5.20
2013,04,24,02,19,5.20
2013,04,24,02,20,5.20
2013,04,24,02,21,5.20
2013,04,24,02,22,5.20
2013,04,24,02,23,5.20
2013,04,24,02,24,5.10
2013,04,24,02,25,5.10
2013,04,24,02,26,5.10
2013,04,24,02,27,5.10
2013,04,24,02,28,5.10
2013,04,24,02,29,5.10
2013,04,24,02,30,5.10
2013,04,24,02,31,5.10
2013,04,24,02,32,5.10
2013,04,24,02,33,5.10
2013,04,24,02,34,5.10
2013,04,24,02,35,5.00
2013,04,24,02,36,5.00
2013,04,24,02,37,5.00
2013,04,24,02,38,5.00
2013,04,24,02,39,5.00
2013,04,24,02,40,5.10
2013,04,24,02,41,5.10
2013,04,24,02,42,5.10
2013,04,24,02,43,5.10
2013,04,24,02,44,5.10
2013,04,24,02,45,5.10
2013,04,24,02,46,5.10
2013,04,24,02,47,5.00
2013,04,24,02,48,5.00
2013,04,24,02,49,5.00
2013,04,24,02,50,5.00
2013,04,24,02,51,4.90
2013,04,24,02,52,4.90
2013,04,24,02,53,4.90
2013,04,24,02,54,4.90
2013,04,24,02,55,4.80
2013,04,24,02,56,4.80
2013,04,24,02,57,4.80
2013,04,24,02,58,4.80
2013,04,24,02,59,4.80
2013,04,24,03,00,4.80
2013,04,24,03,01,4.80
2013,04,24,03,02,4.80
2013,04,24,03,03,4.80
2013,04,24,03,04,4.80
2013,04,24,03,05,4.80
2013,04,24,03,06,4.80
2013,04,24,03,07,4.80
2013,04,24,03,08,4.70
2013,04,24,03,09,4.70
2013,04,24,03,10,4.70
2013,04,24,03,11,4.70
2013,04,24,03,12,4.70
2013,04,24,03,13,4.70
2013,04,24,03,14,4.70
2013,04,24,03,15,4.70
2013,04,24,03,16,4.70
2013,04,24,03,17,4.70
2013,04,24,03,18,4.70
2013,04,24,03,19,4.70
2013,04,24,03,20,4.70
2013,04,24,03,21,4.70
2013,04,24,03,22,4.60
2013,04,24,03,23,4.60
2013,04,24,03,24,4.60
2013,04,24,03,25,4.60
2013,04,24,03,26,4.60
2013,04,24,03,27,4.60
2013,04,24,03,28,4.60
2013,04,24,03,29,4.60
2013,04,24,03,30,4.60
2013,04,24,03,31,4.60
2013,04,24,03,32,4.70
2013,04,24,03,33,4.70
2013,04,24,03,34,4.70
2013,04,24,03,35,4.70
2013,04,24,03,36,4.70
2013,04,24,03,37,4.70
2013,04,24,03,38,4.70
2013,04,24,03,39,4.70
2013,04,24,03,40,4.80
2013,04,24,03,41,4.80
2013,04,24,03,42,4.80
2013,04,24,03,43,4.80
2013,04,24,03,44,4.80
2013,04,24,03,45,4.80
2013,04,24,03,46,4.80
2013,04,24,03,47,4.80
2013,04,24,03,48,4.80
2013,04,24,03,49,4.80
2013,04,24,03,50,4.80
2013,04,24,03,51,4.80
2013,04,24,03,52,4.70
2013,04,24,03,53,4.70
2013,04,24,03,54,4.70
2013,04,24,03,55,4.70
2013,04,24,03,56,4.70
2013,04,24,03,57,4.70
2013,04,24,03,58,4.60
2013,04,24,03,59,4.60
2013,04,24,04,00,4.50
2013,04,24,04,01,4.50
2013,04,24,04,02,4.50
2013,04,24,04,03,4.40
2013,04,24,04,04,4.40
2013,04,24,04,05,4.40
2013,04,24,04,06,4.40
2013,04,24,04,07,4.40
2013,04,24,04,08,4.30
2013,04,24,04,09,4.30
2013,04,24,04,10,4.30
2013,04,24,04,11,4.30
2013,04,24,04,12,4.30
2013,04,24,04,13,4.30
2013,04,24,04,14,4.40
2013,04,24,04,15,4.40
2013,04,24,04,16,4.40
2013,04,24,04,17,4.40
2013,04,24,04,18,4.40
2013,04,24,04,19,4.40
2013,04,24,04,20,4.40
2013,04,24,04,21,4.40
2013,04,24,04,22,4.40
2013,04,24,04,23,4.50
2013,04,24,04,24,4.50
2013,04,24,04,25,4.50
2013,04,24,04,26,4.50
2013,04,24,04,27,4.50
2013,04,24,04,28,4.40
2013,04,24,04,29,4.40
2013,04,24,04,30,4.40
2013,04,24,04,31,4.40
2013,04,24,04,32,4.40
2013,04,24,04,33,4.40
2013,04,24,04,34,4.40
2013,04,24,04,35,4.30
2013,04,24,04,36,4.30
2013,04,24,04,37,4.30
2013,04,24,04,38,4.30
2013,04,24,04,39,4.40
2013,04,24,04,40,4.40
2013,04,24,04,41,4.40
2013,04,24,04,42,4.50
2013,04,24,04,43,4.50
2013,04,24,04,44,4.50
2013,04,24,04,45,4.50
2013,04,24,04,46,4.40
2013,04,24,04,47,4.40
2013,04,24,04,48,4.30
2013,04,24,04,49,4.20
2013,04,24,04,50,4.20
2013,04,24,04,51,4.10
2013,04,24,04,52,4.10
2013,04,24,04,53,4.10
2013,04,24,04,54,4.00
2013,04,24,04,55,4.00
2013,04,24,04,56,3.90
2013,04,24,04,57,3.90
2013,04,24,04,58,3.90
2013,04,24,04,59,3.90
2013,04,24,05,00,3.90
2013,04,24,05,01,3.90
2013,04,24,05,02,3.80
2013,04,24,05,03,3.80
2013,04,24,05,04,3.80
2013,04,24,05,05,3.80
2013,04,24,05,06,3.80
2013,04,24,05,07,3.80
2013,04,24,05,08,3.80
2013,04,24,05,09,3.80
2013,04,24,05,10,3.80
2013,04,24,05,11,3.80
2013,04,24,05,12,3.80
2013,04,24,05,13,3.80
2013,04,24,05,14,3.80
2013,04,24,05,15,3.80
2013,04,24,05,16,3.80
2013,04,24,05,17,3.80
2013,04,24,05,18,3.80
2013,04,24,05,19,3.80
2013,04,24,05,20,3.80
2013,04,24,05,21,3.80
2013,04,24,05,22,3.80
2013,04,24,05,23,3.80
2013,04,24,05,24,3.80
2013,04,24,05,25,3.80
2013,04,24,05,26,3.80
2013,04,24,05,27,3.80
2013,04,24,05,28,3.80
2013,04,24,05,29,3.80
2013,04,24,05,30,3.80
2013,04,24,05,31,3.80
2013,04,24,05,32,3.70
2013,04,24,05,33,3.70
2013,04,24,05,34,3.70
2013,04,24,05,35,3.70
2013,04,24,05,36,3.80
2013,04,24,05,37,3.90
2013,04,24,05,38,4.00
2013,04,24,05,39,4.10
2013,04,24,05,40,4.20
2013,04,24,05,41,4.20
2013,04,24,05,42,4.20
2013,04,24,05,43,4.20
2013,04,24,05,44,4.30
2013,04,24,05,45,4.30
2013,04,24,05,46,4.30
2013,04,24,05,47,4.30
2013,04,24,05,48,4.30
2013,04,24,05,49,4.30
2013,04,24,05,50,4.30
2013,04,24,05,51,4.40
2013,04,24,05,52,4.40
2013,04,24,05,53,4.40
2013,04,24,05,54,4.40
2013,04,24,05,55,4.40
2013,04,24,05,56,4.40
2013,04,24,05,57,4.40
2013,04,24,05,58,4.40
2013,04,24,05,59,4.30
2013,04,24,06,00,4.30
2013,04,24,06,01,4.30
2013,04,24,06,02,4.30
2013,04,24,06,03,4.30
2013,04,24,06,04,4.20
2013,04,24,06,05,4.20
2013,04,24,06,06,4.10
2013,04,24,06,07,4.10
2013,04,24,06,08,4.10
2013,04,24,06,09,4.00
2013,04,24,06,10,4.00
2013,04,24,06,11,4.00
2013,04,24,06,12,3.90
2013,04,24,06,13,3.90
2013,04,24,06,14,3.90
2013,04,24,06,15,3.90
2013,04,24,06,16,3.90
2013,04,24,06,17,3.90
2013,04,24,06,18,3.90
2013,04,24,06,19,3.90
2013,04,24,06,20,3.90
2013,04,24,06,21,3.90
2013,04,24,06,22,3.80
2013,04,24,06,23,3.80
2013,04,24,06,24,3.80
2013,04,24,06,25,3.80
2013,04,24,06,26,3.80
2013,04,24,06,27,3.80
2013,04,24,06,28,3.80
2013,04,24,06,29,3.80
2013,04,24,06,30,3.80
2013,04,24,06,31,3.80
2013,04,24,06,32,3.80
2013,04,24,06,33,3.80
2013,04,24,06,34,3.80
2013,04,24,06,35,3.80
2013,04,24,06,36,3.80
2013,04,24,06,37,3.80
2013,04,24,06,38,3.80
2013,04,24,06,39,3.80
2013,04,24,06,40,3.80
2013,04,24,06,41,3.80
2013,04,24,06,42,3.80
2013,04,24,06,43,3.70
2013,04,24,06,44,3.70
2013,04,24,06,45,3.70
2013,04,24,06,46,3.70
2013,04,24,06,47,3.70
2013,04,24,06,48,3.70
2013,04,24,06,49,3.70
2013,04,24,06,50,3.70
2013,04,24,06,51,3.70
2013,04,24,06,52,3.70
2013,04,24,06,53,3.70
2013,04,24,06,54,3.70
2013,04,24,06,55,3.80
2013,04,24,06,56,3.80
2013,04,24,06,57,3.80
2013,04,24,06,58,3.80
2013,04,24,06,59,3.80
2013,04,24,07,00,3.80
2013,04,24,07,01,3.80
2013,04,24,07,02,3.90
2013,04,24,07,03,3.90
2013,04,24,07,04,4.00
2013,04,24,07,05,4.10
2013,04,24,07,06,4.20
2013,04,24,07,07,4.20
2013,04,24,07,08,4.40
2013,04,24,07,09,4.40
2013,04,24,07,10,4.50
2013,04,24,07,11,4.60
2013,04,24,07,12,4.80
2013,04,24,07,13,5.00
2013,04,24,07,14,5.10
2013,04,24,07,15,5.20
2013,04,24,07,16,5.30
2013,04,24,07,17,5.40
2013,04,24,07,18,5.50
2013,04,24,07,19,5.60
2013,04,24,07,20,5.70
2013,04,24,07,21,5.80
2013,04,24,07,22,5.90
2013,04,24,07,23,6.00
2013,04,24,07,24,6.10
2013,04,24,07,25,6.20
2013,04,24,07,26,6.30
2013,04,24,07,27,6.40
2013,04,24,07,28,6.60
2013,04,24,07,29,6.70
2013,04,24,07,30,6.90
2013,04,24,07,31,7.10
2013,04,24,07,32,7.20
2013,04,24,07,33,7.40
2013,04,24,07,34,7.50
2013,04,24,07,35,7.60
2013,04,24,07,36,7.70
2013,04,24,07,37,7.80
2013,04,24,07,38,7.80
2013,04,24,07,39,8.00
2013,04,24,07,40,8.10
2013,04,24,07,41,8.10
2013,04,24,07,42,8.20
2013,04,24,07,43,8.30
2013,04,24,07,44,8.30
2013,04,24,07,45,8.50
2013,04,24,07,46,8.60
2013,04,24,07,47,8.70
2013,04,24,07,48,8.80
2013,04,24,07,49,8.90
2013,04,24,07,50,9.10
2013,04,24,07,51,9.20
2013,04,24,07,52,9.30
2013,04,24,07,53,9.40
2013,04,24,07,54,9.50
2013,04,24,07,55,9.60
2013,04,24,07,56,9.70
2013,04,24,07,57,9.80
2013,04,24,07,58,9.80
2013,04,24,07,59,9.90
2013,04,24,08,00,10.00
2013,04,24,08,01,10.00
2013,04,24,08,02,10.10
2013,04,24,08,03,10.20
2013,04,24,08,04,10.20
2013,04,24,08,05,10.20
2013,04,24,08,06,10.30
2013,04,24,08,07,10.30
2013,04,24,08,08,10.30
2013,04,24,08,09,10.40
2013,04,24,08,10,10.40
2013,04,24,08,11,10.50
2013,04,24,08,12,10.60
2013,04,24,08,13,10.60
2013,04,24,08,14,10.70
2013,04,24,08,15,10.80
2013,04,24,08,16,10.90
2013,04,24,08,17,10.90
2013,04,24,08,18,11.00
2013,04,24,08,19,11.10
2013,04,24,08,20,11.10
2013,04,24,08,21,11.20
2013,04,24,08,22,11.20
2013,04,24,08,23,11.30
2013,04,24,08,24,11.30
2013,04,24,08,25,11.30
2013,04,24,08,26,11.30
2013,04,24,08,27,11.30
2013,04,24,08,28,11.30
2013,04,24,08,29,11.30
2013,04,24,08,30,11.30
2013,04,24,08,31,11.40
2013,04,24,08,32,11.40
2013,04,24,08,33,11.40
2013,04,24,08,34,11.50
2013,04,24,08,35,11.50
2013,04,24,08,36,11.60
2013,04,24,08,37,11.70
2013,04,24,08,38,11.80
2013,04,24,08,39,11.90
2013,04,24,08,40,11.90
2013,04,24,08,41,12.00
2013,04,24,08,42,12.00
2013,04,24,08,43,12.00
2013,04,24,08,44,12.10
2013,04,24,08,45,12.10
2013,04,24,08,46,12.20
2013,04,24,08,47,12.20
2013,04,24,08,48,12.20
2013,04,24,08,49,12.20
2013,04,24,08,50,12.20
2013,04,24,08,51,12.30
2013,04,24,08,52,12.30
2013,04,24,08,53,12.30
2013,04,24,08,54,12.30
2013,04,24,08,55,12.40
2013,04,24,08,56,12.40
2013,04,24,08,57,12.40
2013,04,24,08,58,12.50
2013,04,24,08,59,12.50
2013,04,24,09,00,12.60
2013,04,24,09,01,12.60
2013,04,24,09,02,12.60
2013,04,24,09,03,12.60
2013,04,24,09,04,12.60
2013,04,24,09,05,12.70
2013,04,24,09,06,12.70
2013,04,24,09,07,12.70
2013,04,24,09,08,12.70
2013,04,24,09,09,12.70
2013,04,24,09,10,12.70
2013,04,24,09,11,12.80
2013,04,24,09,12,12.80
2013,04,24,09,13,12.80
2013,04,24,09,14,12.80
2013,04,24,09,15,12.80
2013,04,24,09,16,12.80
2013,04,24,09,17,12.80
2013,04,24,09,18,12.80
2013,04,24,09,19,12.80
2013,04,24,09,20,12.80
2013,04,24,09,21,12.80
2013,04,24,09,22,12.80
2013,04,24,09,23,12.80
2013,04,24,09,24,12.80
2013,04,24,09,25,12.80
2013,04,24,09,26,12.80
2013,04,24,09,27,12.80
2013,04,24,09,28,12.80
2013,04,24,09,29,12.70
2013,04,24,09,30,12.70
2013,04,24,09,31,12.70
2013,04,24,09,32,12.70
2013,04,24,09,33,12.70
2013,04,24,09,34,12.80
2013,04,24,09,35,12.80
2013,04,24,09,36,12.80
2013,04,24,09,37,12.80
2013,04,24,09,38,12.80
2013,04,24,09,39,12.90
2013,04,24,09,40,12.90
2013,04,24,09,41,12.90
2013,04,24,09,42,12.90
2013,04,24,09,43,12.90
2013,04,24,09,44,12.90
2013,04,24,09,45,12.90
2013,04,24,09,46,12.90
2013,04,24,09,47,12.90
2013,04,24,09,48,12.90
2013,04,24,09,49,12.80
2013,04,24,09,50,12.90
2013,04,24,09,51,12.90
2013,04,24,09,52,12.90
2013,04,24,09,53,12.90
2013,04,24,09,54,12.90
2013,04,24,09,55,13.00
2013,04,24,09,56,13.00
2013,04,24,09,57,13.00
2013,04,24,09,58,13.00
2013,04,24,09,59,13.00
2013,04,24,10,00,13.00
2013,04,24,10,01,13.00
2013,04,24,10,02,13.00
2013,04,24,10,03,13.00
2013,04,24,10,04,13.00
2013,04,24,10,05,12.90
2013,04,24,10,06,12.80
2013,04,24,10,07,12.80
2013,04,24,10,08,12.80
2013,04,24,10,09,12.70
2013,04,24,10,10,12.80
2013,04,24,10,11,12.80
2013,04,24,10,12,12.80
2013,04,24,10,13,12.80
2013,04,24,10,14,12.80
2013,04,24,10,15,12.80
2013,04,24,10,16,12.90
2013,04,24,10,17,13.00
2013,04,24,10,18,13.00
2013,04,24,10,19,13.10
2013,04,24,10,20,13.10
2013,04,24,10,21,13.10
2013,04,24,10,22,13.10
2013,04,24,10,23,13.10
2013,04,24,10,24,13.10
2013,04,24,10,25,13.20
2013,04,24,10,26,13.30
2013,04,24,10,27,13.30
2013,04,24,10,28,13.30
2013,04,24,10,29,13.40
2013,04,24,10,30,13.40
2013,04,24,10,31,13.40
2013,04,24,10,32,13.40
2013,04,24,10,33,13.50
2013,04,24,10,34,13.60
2013,04,24,10,35,13.60
2013,04,24,10,36,13.70
2013,04,24,10,37,13.70
2013,04,24,10,38,13.70
2013,04,24,10,39,13.80
2013,04,24,10,40,13.80
2013,04,24,10,41,13.80
2013,04,24,10,42,13.80
2013,04,24,10,43,13.80
2013,04,24,10,44,13.90
2013,04,24,10,45,13.90
2013,04,24,10,46,13.90
2013,04,24,10,47,13.90
2013,04,24,10,48,13.90
2013,04,24,10,49,13.90
2013,04,24,10,50,13.90
2013,04,24,10,51,13.90
2013,04,24,10,52,13.80
2013,04,24,10,53,13.80
2013,04,24,10,54,13.60
2013,04,24,10,55,13.60
2013,04,24,10,56,13.60
2013,04,24,10,57,13.50
2013,04,24,10,58,13.50
2013,04,24,10,59,13.50
2013,04,24,11,00,13.50
2013,04,24,11,01,13.50
2013,04,24,11,02,13.50
2013,04,24,11,03,13.50
2013,04,24,11,04,13.60
2013,04,24,11,05,13.60
2013,04,24,11,06,13.70
2013,04,24,11,07,13.70
2013,04,24,11,08,13.70
2013,04,24,11,09,13.60
2013,04,24,11,10,13.60
2013,04,24,11,11,13.60
2013,04,24,11,12,13.70
2013,04,24,11,13,13.70
2013,04,24,11,14,13.70
2013,04,24,11,15,13.70
2013,04,24,11,16,13.80
2013,04,24,11,17,13.80
2013,04,24,11,18,13.90
2013,04,24,11,19,14.00
2013,04,24,11,20,14.10
2013,04,24,11,21,14.10
2013,04,24,11,22,14.20
2013,04,24,11,23,14.20
2013,04,24,11,24,14.30
2013,04,24,11,25,14.30
2013,04,24,11,26,14.30
2013,04,24,11,27,14.20
2013,04,24,11,28,14.10
2013,04,24,11,29,14.00
2013,04,24,11,30,13.90
2013,04,24,11,31,14.00
2013,04,24,11,32,14.00
2013,04,24,11,33,14.10
2013,04,24,11,34,14.10
2013,04,24,11,35,14.00
2013,04,24,11,36,14.00
2013,04,24,11,37,14.00
2013,04,24,11,38,14.10
2013,04,24,11,39,14.10
2013,04,24,11,40,14.20
2013,04,24,11,41,14.30
2013,04,24,11,42,14.50
2013,04,24,11,43,14.60
2013,04,24,11,44,14.70
2013,04,24,11,45,14.80
2013,04,24,11,46,14.90
2013,04,24,11,47,15.00
2013,04,24,11,48,15.10
2013,04,24,11,49,15.10
2013,04,24,11,50,15.20
2013,04,24,11,51,15.20
2013,04,24,11,52,15.20
2013,04,24,11,53,15.20
2013,04,24,11,54,15.10
2013,04,24,11,55,15.00
2013,04,24,11,56,15.00
2013,04,24,11,57,15.00
2013,04,24,11,58,15.00
2013,04,24,11,59,15.00
2013,04,24,12,00,15.10
2013,04,24,12,01,15.20
2013,04,24,12,02,15.20
2013,04,24,12,03,15.30
2013,04,24,12,04,15.30
2013,04,24,12,05,15.30
2013,04,24,12,06,15.30
2013,04,24,12,07,15.30
2013,04,24,12,08,15.30
2013,04,24,12,09,15.20
2013,04,24,12,10,15.20
2013,04,24,12,11,15.20
2013,04,24,12,12,15.20
2013,04,24,12,13,15.10
2013,04,24,12,14,15.10
2013,04,24,12,15,15.00
2013,04,24,12,16,15.00
2013,04,24,12,17,14.90
2013,04,24,12,18,14.90
2013,04,24,12,19,14.90
2013,04,24,12,20,14.90
2013,04,24,12,21,14.90
2013,04,24,12,22,15.00
2013,04,24,12,23,15.10
2013,04,24,12,24,15.20
2013,04,24,12,25,15.30
2013,04,24,12,26,15.30
2013,04,24,12,27,15.30
2013,04,24,12,28,15.30
2013,04,24,12,29,15.30
2013,04,24,12,30,15.30
2013,04,24,12,31,15.40
2013,04,24,12,32,15.40
2013,04,24,12,33,15.40
2013,04,24,12,34,15.40
2013,04,24,12,35,15.40
2013,04,24,12,36,15.40
2013,04,24,12,37,15.40
2013,04,24,12,38,15.50
2013,04,24,12,39,15.50
2013,04,24,12,40,15.50
2013,04,24,12,41,15.50
2013,04,24,12,42,15.40
2013,04,24,12,43,15.40
2013,04,24,12,44,15.40
2013,04,24,12,45,15.50
2013,04,24,12,46,15.40
2013,04,24,12,47,15.50
2013,04,24,12,48,15.50
2013,04,24,12,49,15.60
2013,04,24,12,50,15.60
2013,04,24,12,51,15.60
2013,04,24,12,52,15.60
2013,04,24,12,53,15.60
2013,04,24,12,54,15.60
2013,04,24,12,55,15.60
2013,04,24,12,56,15.60
2013,04,24,12,57,15.70
2013,04,24,12,58,15.70
2013,04,24,12,59,15.70
2013,04,24,13,00,15.70
2013,04,24,13,01,15.70
2013,04,24,13,02,15.70
2013,04,24,13,03,15.60
2013,04,24,13,04,15.50
2013,04,24,13,05,15.40
2013,04,24,13,06,15.40
2013,04,24,13,07,15.30
2013,04,24,13,08,15.30
2013,04,24,13,09,15.40
2013,04,24,13,10,15.40
2013,04,24,13,11,15.50
2013,04,24,13,12,15.50
2013,04,24,13,13,15.50
2013,04,24,13,14,15.40
2013,04,24,13,15,15.40
2013,04,24,13,16,15.30
2013,04,24,13,17,15.30
2013,04,24,13,18,15.40
2013,04,24,13,19,15.50
2013,04,24,13,20,15.60
2013,04,24,13,21,15.70
2013,04,24,13,22,15.70
2013,04,24,13,23,15.70
2013,04,24,13,24,15.70
2013,04,24,13,25,15.80
2013,04,24,13,26,15.80
2013,04,24,13,27,15.90
2013,04,24,13,28,15.90
2013,04,24,13,29,15.90
2013,04,24,13,30,15.90
2013,04,24,13,31,15.80
2013,04,24,13,32,15.80
2013,04,24,13,33,15.80
2013,04,24,13,34,15.90
2013,04,24,13,35,15.90
2013,04,24,13,36,15.90
2013,04,24,13,37,16.00
2013,04,24,13,38,16.00
2013,04,24,13,39,16.00
2013,04,24,13,40,16.00
2013,04,24,13,41,15.90
2013,04,24,13,42,15.90
2013,04,24,13,43,16.00
2013,04,24,13,44,16.00
2013,04,24,13,45,16.10
2013,04,24,13,46,16.20
2013,04,24,13,47,16.30
2013,04,24,13,48,16.40
2013,04,24,13,49,16.50
2013,04,24,13,50,16.60
2013,04,24,13,51,16.70
2013,04,24,13,52,16.70
2013,04,24,13,53,16.80
2013,04,24,13,54,16.80
2013,04,24,13,55,16.90
2013,04,24,13,56,16.90
2013,04,24,13,57,17.00
2013,04,24,13,58,17.00
2013,04,24,13,59,17.10
2013,04,24,14,00,17.20
2013,04,24,14,01,17.20
2013,04,24,14,02,17.20
2013,04,24,14,03,17.00
2013,04,24,14,04,17.00
2013,04,24,14,05,16.90
2013,04,24,14,06,16.80
2013,04,24,14,07,16.80
2013,04,24,14,08,16.80
2013,04,24,14,09,16.80
2013,04,24,14,10,16.80
2013,04,24,14,11,16.90
2013,04,24,14,12,17.00
2013,04,24,14,13,17.10
2013,04,24,14,14,17.30
2013,04,24,14,15,17.30
2013,04,24,14,16,17.40
2013,04,24,14,17,17.40
2013,04,24,14,18,17.40
2013,04,24,14,19,17.40
2013,04,24,14,20,17.40
2013,04,24,14,21,17.40
2013,04,24,14,22,17.50
2013,04,24,14,23,17.50
2013,04,24,14,24,17.50
2013,04,24,14,25,17.50
2013,04,24,14,26,17.50
2013,04,24,14,27,17.50
2013,04,24,14,28,17.50
2013,04,24,14,29,17.50
2013,04,24,14,30,17.40
2013,04,24,14,31,17.30
2013,04,24,14,32,17.30
2013,04,24,14,33,17.30
2013,04,24,14,34,17.40
2013,04,24,14,35,17.50
2013,04,24,14,36,17.60
2013,04,24,14,37,17.70
2013,04,24,14,38,17.70
2013,04,24,14,39,17.80
2013,04,24,14,40,17.70
2013,04,24,14,41,17.70
2013,04,24,14,42,17.70
2013,04,24,14,43,17.70
2013,04,24,14,44,17.70
2013,04,24,14,45,17.70
2013,04,24,14,46,17.70
2013,04,24,14,47,17.70
2013,04,24,14,48,17.70
2013,04,24,14,49,17.80
2013,04,24,14,50,17.80
2013,04,24,14,51,17.70
2013,04,24,14,52,17.70
2013,04,24,14,53,17.60
2013,04,24,14,54,17.60
2013,04,24,14,55,17.60
2013,04,24,14,56,17.60
2013,04,24,14,57,17.60
2013,04,24,14,58,17.60
2013,04,24,14,59,17.60
2013,04,24,15,00,17.60
2013,04,24,15,01,17.60
2013,04,24,15,02,17.60
2013,04,24,15,03,17.60
2013,04,24,15,04,17.50
2013,04,24,15,05,17.50
2013,04,24,15,06,17.60
2013,04,24,15,07,17.60
2013,04,24,15,08,17.60
2013,04,24,15,09,17.70
2013,04,24,15,10,17.70
2013,04,24,15,11,17.70
2013,04,24,15,12,17.70
2013,04,24,15,13,17.70
2013,04,24,15,14,17.70
2013,04,24,15,15,17.70
2013,04,24,15,16,17.70
2013,04,24,15,17,17.70
2013,04,24,15,18,17.70
2013,04,24,15,19,17.70
2013,04,24,15,20,17.70
2013,04,24,15,21,17.70
2013,04,24,15,22,17.60
2013,04,24,15,23,17.50
2013,04,24,15,24,17.50
2013,04,24,15,25,17.40
2013,04,24,15,26,17.40
2013,04,24,15,27,17.40
2013,04,24,15,28,17.40
2013,04,24,15,29,17.50
2013,04,24,15,30,17.60
2013,04,24,15,31,17.70
2013,04,24,15,32,17.70
2013,04,24,15,33,17.60
2013,04,24,15,34,17.60
2013,04,24,15,35,17.50
2013,04,24,15,36,17.50
2013,04,24,15,37,17.50
2013,04,24,15,38,17.60
2013,04,24,15,39,17.60
2013,04,24,15,40,17.70
2013,04,24,15,41,17.70
2013,04,24,15,42,17.80
2013,04,24,15,43,17.80
2013,04,24,15,44,17.80
2013,04,24,15,45,17.80
2013,04,24,15,46,17.80
2013,04,24,15,47,17.70
2013,04,24,15,48,17.70
2013,04,24,15,49,17.80
2013,04,24,15,50,17.80
2013,04,24,15,51,18.00
2013,04,24,15,52,18.10
2013,04,24,15,53,18.10
2013,04,24,15,54,18.20
2013,04,24,15,55,18.20
2013,04,24,15,56,18.20
2013,04,24,15,57,18.20
2013,04,24,15,58,18.30
2013,04,24,15,59,18.30
2013,04,24,16,00,18.30
2013,04,24,16,01,18.40
2013,04,24,16,02,18.30
2013,04,24,16,03,18.30
2013,04,24,16,04,18.20
2013,04,24,16,05,18.20
2013,04,24,16,06,18.30
2013,04,24,16,07,18.30
2013,04,24,16,08,18.40
2013,04,24,16,09,18.50
2013,04,24,16,10,18.50
2013,04,24,16,11,18.40
2013,04,24,16,12,18.40
2013,04,24,16,13,18.50
2013,04,24,16,14,18.50
2013,04,24,16,15,18.40
2013,04,24,16,16,18.40
2013,04,24,16,17,18.40
2013,04,24,16,18,18.50
2013,04,24,16,19,18.40
2013,04,24,16,20,18.30
2013,04,24,16,21,18.10
2013,04,24,16,22,18.10
2013,04,24,16,23,18.00
2013,04,24,16,24,18.10
2013,04,24,16,25,18.10
2013,04,24,16,26,18.10
2013,04,24,16,27,18.10
2013,04,24,16,28,18.20
2013,04,24,16,29,18.20
2013,04,24,16,30,18.10
2013,04,24,16,31,18.00
2013,04,24,16,32,17.90
2013,04,24,16,33,17.90
2013,04,24,16,34,17.80
2013,04,24,16,35,17.70
2013,04,24,16,36,17.70
2013,04,24,16,37,17.60
2013,04,24,16,38,17.60
2013,04,24,16,39,17.60
2013,04,24,16,40,17.60
2013,04,24,16,41,17.70
2013,04,24,16,42,17.80
2013,04,24,16,43,17.90
2013,04,24,16,44,17.90
2013,04,24,16,45,17.80
2013,04,24,16,46,17.80
2013,04,24,16,47,17.70
2013,04,24,16,48,17.60
2013,04,24,16,49,17.60
2013,04,24,16,50,17.60
2013,04,24,16,51,17.60
2013,04,24,16,52,17.50
2013,04,24,16,53,17.50
2013,04,24,16,54,17.60
2013,04,24,16,55,17.60
2013,04,24,16,56,17.60
2013,04,24,16,57,17.70
2013,04,24,16,58,17.70
2013,04,24,16,59,17.70
2013,04,24,17,00,17.70
2013,04,24,17,01,17.60
2013,04,24,17,02,17.50
2013,04,24,17,03,17.50
2013,04,24,17,04,17.50
2013,04,24,17,05,17.50
2013,04,24,17,06,17.60
2013,04,24,17,07,17.70
2013,04,24,17,08,17.70
2013,04,24,17,09,17.70
2013,04,24,17,10,17.70
2013,04,24,17,11,17.60
2013,04,24,17,12,17.60
2013,04,24,17,13,17.70
2013,04,24,17,14,17.80
2013,04,24,17,15,17.80
2013,04,24,17,16,17.80
2013,04,24,17,17,17.80
2013,04,24,17,18,17.90
2013,04,24,17,19,17.80
2013,04,24,17,20,17.70
2013,04,24,17,21,17.60
2013,04,24,17,22,17.60
2013,04,24,17,23,17.60
2013,04,24,17,24,17.60
2013,04,24,17,25,17.60
2013,04,24,17,26,17.60
2013,04,24,17,27,17.60
2013,04,24,17,28,17.50
2013,04,24,17,29,17.60
2013,04,24,17,30,17.60
2013,04,24,17,31,17.60
2013,04,24,17,32,17.60
2013,04,24,17,33,17.60
2013,04,24,17,34,17.60
2013,04,24,17,35,17.70
2013,04,24,17,36,17.70
2013,04,24,17,37,17.70
2013,04,24,17,38,17.70
2013,04,24,17,39,17.70
2013,04,24,17,40,17.60